Weather History for Hobart, TA

Change the Weather History Date:

Sunday, December 9, 2012

  Actual Average Record
Temperature  
Mean Temperature 59 °F -  
Max Temperature 68 °F 70 °F 91 °F (2006)
Min Temperature 50 °F 52 °F 46 °F (2008)
Degree Days  
Heating Degree Days 6    
Growing Degree Days 9 (Base 50)    
Moisture  
Dew Point 39 °F    
Average Humidity 47    
Maximum Humidity 76    
Minimum Humidity 19    
Precipitation  
Precipitation 0.00 in 0.07 in - ()
Sea Level Pressure  
Sea Level Pressure 30.07 in    
Wind  
Wind Speed 11 mph ()    
Max Wind Speed 18 mph    
Max Gust Speed 29 mph    
Visibility 7.5 miles    
Events      
Averages and records for this station are not official NWS values.
T = Trace of Precipitation, MM = Missing Value Source: Averaged Metar Reports

Daily Weather History Graph

Daily Weather History Graph

Search for Another Location

Airport:

Trip Planner

Search our weather history database for the weather conditions in past years. The results will help you decide how hot, cold, wet, or windy it might be!

Date:

Astronomy

Dec. 09, 2012 Rise Set
Actual Time 5:25 AM EST 8:39 PM EST
Civil Twilight 4:50 AM EST 9:14 PM EST
Nautical Twilight 4:05 AM EST 9:59 PM EST
Astronomical Twilight 3:10 AM EST 10:54 PM EST
Moon 2:07 AM EST (12/9) 3:44 PM EST (12/9)
Length of Visible Light 16h 24m
Length of Day
15h 14m
Waning Crescent, 25% of the Moon is Illuminated
Dec 9
Waning Crescent
Dec 13
New
Dec 20
First Quarter
Dec 28
Full
Jan 5
Last Quarter

Hourly Weather History & Observations

Time (EST) Temp. Dew Point Humidity Pressure Visibility Wind Dir Wind Speed Gust Speed Precip Events Conditions
12:00 AM 57 °F 43 °F 50% 29.83 in 22 mi WNW 15.0 mph - -   Partly Cloudy
12:00 AM 57.2 °F 42.8 °F 59% 29.83 in 6.2 mi WNW 15.0 mph - N/A   Scattered Clouds
12:30 AM 55.4 °F 42.8 °F 63% 29.83 in 6.2 mi WNW 12.7 mph - N/A   Partly Cloudy
1:00 AM 55.4 °F 42.8 °F 63% 29.83 in 6.2 mi WNW 15.0 mph - N/A   Partly Cloudy
1:30 AM 55.4 °F 42.8 °F 63% 29.83 in 6.2 mi West 15.0 mph - N/A   Partly Cloudy
2:00 AM 54 °F 44 °F 59% 29.86 in - West 5.8 mph - -  
2:00 AM 53.6 °F 44.6 °F 72% 29.86 in 6.2 mi West 5.8 mph - N/A   Partly Cloudy
2:30 AM 53.6 °F 44.6 °F 72% 29.86 in 6.2 mi ENE 1.2 mph - N/A   Partly Cloudy
3:00 AM 53 °F 44 °F 61% 29.88 in 22 mi NNE 5.8 mph - -   Partly Cloudy
3:00 AM 53.6 °F 42.8 °F 67% 29.86 in 6.2 mi NNE 5.8 mph - N/A   Partly Cloudy
3:30 AM 53.6 °F 39.2 °F 58% 29.86 in 6.2 mi West 3.5 mph - N/A   Partly Cloudy
4:00 AM 51.8 °F 41.0 °F 67% 29.89 in 6.2 mi WSW 8.1 mph - N/A   Partly Cloudy
4:30 AM 53.6 °F 39.2 °F 58% 29.89 in 6.2 mi West 15.0 mph - N/A   Partly Cloudy
5:00 AM 52 °F 40 °F 54% 29.91 in - West 11.5 mph - -  
5:00 AM 51.8 °F 41.0 °F 67% 29.89 in 6.2 mi West 11.5 mph - N/A   Partly Cloudy
5:30 AM 53.6 °F 39.2 °F 58% 29.92 in 6.2 mi West 9.2 mph - N/A   Partly Cloudy
6:00 AM 54 °F 39 °F 47% 29.95 in 22 mi West 10.4 mph - -   Partly Cloudy
6:00 AM 53.6 °F 39.2 °F 58% 29.95 in 6.2 mi West 10.4 mph - N/A   Partly Cloudy
6:30 AM 53.6 °F 41.0 °F 62% 29.95 in 6.2 mi West 5.8 mph - N/A   Partly Cloudy
7:00 AM 57.2 °F 39.2 °F 51% 29.98 in 6.2 mi NW 9.2 mph - N/A   Partly Cloudy
7:30 AM 57.2 °F 37.4 °F 48% 29.98 in 6.2 mi NW 9.2 mph - N/A   Partly Cloudy
8:00 AM 59 °F 37 °F 32% 30.02 in - WNW 10.4 mph - -  
8:00 AM 59.0 °F 37.4 °F 45% 30.01 in 6.2 mi WNW 10.4 mph - N/A   Partly Cloudy
8:30 AM 59.0 °F 37.4 °F 45% 30.01 in 6.2 mi WNW 15.0 mph - N/A   Partly Cloudy
9:00 AM 60 °F 35 °F 28% 30.05 in 22 mi West 12.7 mph - -   Partly Cloudy
9:00 AM 59.0 °F 35.6 °F 42% 30.04 in 6.2 mi WSW 12.7 mph - N/A   Partly Cloudy
9:30 AM 62.6 °F 37.4 °F 39% 30.04 in 6.2 mi WNW 16.1 mph - N/A   Scattered Clouds
10:00 AM 59.0 °F 37.4 °F 45% 30.06 in 6.2 mi West 11.5 mph - N/A   Mostly Cloudy
10:30 AM 64.4 °F 37.4 °F 37% 30.06 in 6.2 mi NW 16.1 mph - N/A   Partly Cloudy
11:00 AM 64 °F 34 °F 21% 30.08 in - West 18.4 mph - -  
11:00 AM 64.4 °F 33.8 °F 32% 30.06 in - West 18.4 mph - N/A   Clear
11:30 AM 62.6 °F 33.8 °F 34% 30.06 in - WSW 15.0 mph - N/A   Clear
12:00 PM 65 °F 36 °F 23% 30.09 in 19 mi WNW 17.3 mph - -   Partly Cloudy
12:00 PM 64.4 °F 35.6 °F 34% 30.09 in - WNW 17.3 mph - N/A   Clear
12:30 PM 62.6 °F 35.6 °F 37% 30.09 in - WNW 11.5 mph - N/A   Clear
1:00 PM 64.4 °F 37.4 °F 37% 30.09 in - WSW 10.4 mph - N/A   Clear
1:30 PM 62.6 °F 39.2 °F 42% 30.09 in - SW 16.1 mph - N/A   Clear
1:45 PM 62.6 °F 37.4 °F 39% 30.12 in 6.2 mi SW 17.3 mph 28.8 mph N/A   Mostly Cloudy
2:00 PM 65 °F 37 °F 24% 30.13 in - SW 17.3 mph - -  
2:00 PM 64.4 °F 37.4 °F 37% 30.12 in 6.2 mi SW 17.3 mph - N/A   Scattered Clouds
2:30 PM 68.0 °F 35.6 °F 30% 30.12 in - SW 12.7 mph - N/A   Clear
3:00 PM 66 °F 34 °F 19% 30.14 in 19 mi SW 13.8 mph - -   Partly Cloudy
3:00 PM 66.2 °F 33.8 °F 30% 30.12 in - SW 13.8 mph - N/A   Clear
3:30 PM 66.2 °F 35.6 °F 32% 30.12 in - West 15.0 mph - N/A   Clear
4:00 PM 66.2 °F 33.8 °F 30% 30.12 in - SW 11.5 mph - N/A   Clear
4:30 PM 64.4 °F 35.6 °F 34% 30.15 in - SSW 13.8 mph - N/A   Clear
5:00 PM 65 °F 36 °F 22% 30.17 in - SSW 13.8 mph - -  
5:00 PM 64.4 °F 35.6 °F 34% 30.15 in - SSW 13.8 mph - N/A   Clear
5:30 PM 66.2 °F 35.6 °F 32% 30.15 in - SW 10.4 mph - N/A   Clear
6:00 PM 64 °F 34 °F 21% 30.18 in 16 mi SW 11.5 mph - -   Haze
6:00 PM 64.4 °F 33.8 °F 32% 30.15 in - SW 11.5 mph - N/A   Clear
6:30 PM 66.2 °F 35.6 °F 32% 30.18 in - SW 11.5 mph - N/A   Clear
7:00 PM 60.8 °F 46.4 °F 59% 30.21 in - SSE 13.8 mph - N/A   Clear
7:30 PM 60.8 °F 42.8 °F 52% 30.21 in 6.2 mi SSE 12.7 mph - N/A   Partly Cloudy
8:00 PM 59 °F 43 °F 44% 30.25 in - SSE 11.5 mph - -  
8:00 PM 59.0 °F 42.8 °F 55% 30.24 in 6.2 mi SSE 11.5 mph - N/A   Partly Cloudy
8:30 PM 57.2 °F 44.6 °F 63% 30.24 in - ESE 8.1 mph - N/A   Clear
9:00 PM 57 °F 39 °F 39% 30.28 in 12 mi SE 6.9 mph - -   Haze
9:00 PM 57.2 °F 39.2 °F 51% 30.27 in - SE 6.9 mph - N/A   Clear
9:30 PM 57.2 °F 44.6 °F 63% 30.30 in - ENE 6.9 mph - N/A   Clear
10:00 PM 53.6 °F 44.6 °F 72% 30.30 in - ENE 6.9 mph - N/A   Clear
10:30 PM 53.6 °F 44.6 °F 72% 30.30 in - East 5.8 mph - N/A   Clear
11:00 PM 53 °F 45 °F 65% 30.33 in - ENE 4.6 mph - -  
11:00 PM 51.8 °F 44.6 °F 76% 30.30 in - ENE 4.6 mph - N/A   Clear
11:30 PM 50.0 °F 42.8 °F 76% 30.33 in 6.2 mi East 3.5 mph - N/A   Partly Cloudy